1532149201.24,57162,18.81,73986.5,8.25,-22.07,-23.23,0,*72
1532149202.48,57163,18.81,73986.3,8.25,-21.33,-22.41,0,*72
1532149203.73,57164,18.81,73990.5,8.25,-21.77,-22.77,0,*70
1532149204.97,57165,18.81,73990.8,8.25,-22.11,-23.29,0,*78
1532149206.23,57166,18.81,73986.8,8.21,-21.87,-22.97,0,*77
1532149207.47,57167,18.81,73976.0,8.23,-22.21,-23.33,0,*74
1532149208.69,57168,18.81,73978.0,8.21,-22.97,-24.31,0,*71
1532149209.92,57169,18.81,73978.8,8.21,-22.37,-23.59,0,*73
1532149211.13,57170,18.81,73978.8,8.21,-22.63,-23.79,0,*78
1532149212.36,57171,18.81,73978.3,8.19,-22.67,-23.85,0,*75
1532149213.58,57172,18.81,73978.0,8.19,-22.37,-23.53,0,*78
1532149214.86,57173,18.81,73980.8,8.17,-22.21,-23.33,0,*76
1532149216.1,57174,18.81,73980.0,8.17,-22.03,-23.29,0,*7A
1532149217.33,57175,18.81,73980.8,8.17,-21.93,-22.97,0,*75
1532149218.56,57176,18.81,73982.3,8.17,-21.93,-22.97,0,*76
1532149219.79,57177,18.81,73986.0,8.17,-21.47,-22.67,0,*71
1532149221.04,57178,18.81,73984.3,8.17,-21.73,-22.73,0,*7C
1532149222.24,57179,18.81,73988.3,8.19,-21.13,-22.03,0,*72
1532149223.46,57180,18.81,73986.0,8.17,-21.09,-22.03,0,*71
1532149224.66,57181,18.81,73984.3,8.19,-21.13,-22.07,0,*71
1532149225.89,57182,18.81,73984.8,8.19,-21.27,-22.27,0,*77
1532149227.12,57183,18.81,73986.3,8.19,-20.99,-21.93,0,*7E
1532149228.35,57184,18.81,73984.5,8.23,-20.89,-21.87,0,*74
1532149229.58,57185,18.81,73980.8,8.21,-20.73,-21.57,0,*7F
1532149230.8,57186,18.81,73984.5,8.23,-20.59,-21.57,0,*76
1532149232.05,57187,18.81,73986.3,8.23,-20.19,-21.23,0,*70
1532149233.27,57188,18.81,73986.8,8.23,-20.49,-21.43,0,*7C
1532149234.52,57189,18.81,73984.8,8.23,-21.23,-22.17,0,*72
1532149235.76,57190,18.81,73982.8,8.27,-20.79,-21.57,0,*77
1532149236.95,57191,18.81,73986.3,8.27,-20.69,-21.63,0,*70
1532149238.17,57192,18.81,73984.8,8.25,-20.73,-21.63,0,*7A
1532149239.39,57193,18.81,73988.3,8.27,-20.49,-21.47,0,*76
1532149240.63,57194,18.81,73986.8,8.29,-20.49,-21.73,0,*78
1532149241.84,57195,18.81,73984.0,8.31,-20.35,-21.43,0,*78
1532149243.09,57196,18.81,73982.8,8.29,-20.49,-21.43,0,*79
1532149244.34,57197,18.81,73986.0,8.33,-20.73,-21.67,0,*7C
1532149245.58,57198,18.81,73986.8,8.33,-20.73,-21.67,0,*73
1532149246.83,57199,18.81,73984.5,8.33,-20.73,-21.67,0,*72
1532149248.08,57200,18.81,73988.8,8.35,-20.83,-21.83,0,*72
1532149249.35,57201,18.81,73986.8,8.33,-21.27,-22.31,0,*70
1532149250.58,57202,18.81,73986.3,8.35,-21.53,-22.57,0,*76
1532149251.86,57203,18.81,73988.3,8.33,-21.23,-22.31,0,*76
1532149253.13,57204,18.81,73988.8,8.33,-20.79,-21.83,0,*75
1532149254.36,57205,18.81,73988.0,8.35,-21.53,-22.57,0,*71
1532149255.61,57206,18.81,73984.8,8.33,-21.97,-23.09,0,*76
1532149256.84,57207,18.81,73980.5,8.35,-21.53,-22.57,0,*73
1532149258.06,57208,18.81,73984.0,8.33,-21.39,-22.37,0,*70
1532149259.31,57209,18.81,73986.0,8.33,-21.03,-22.03,0,*7F
1532149260.53,57210,18.81,73986.5,8.33,-20.43,-21.39,0,*78
1532149261.74,57211,18.81,73986.3,8.35,-19.99,-20.89,0,*78
1532149262.93,57212,18.81,73984.0,8.35,-20.29,-21.17,0,*7C
1532149264.13,57213,18.81,73986.8,8.39,-19.75,-20.59,0,*79
1532149265.39,57214,18.81,73980.8,8.41,-19.47,-20.49,0,*71
1532149266.62,57215,18.81,73984.5,8.41,-19.91,-20.93,0,*7C
1532149267.82,57216,18.81,73980.5,8.45,-20.25,-21.17,0,*73
1532149269.06,57217,18.81,73986.8,8.45,-19.95,-20.83,0,*7F
1532149270.27,57218,18.81,73986.8,8.49,-19.47,-20.25,0,*7F
1532149271.52,57219,18.81,73984.5,8.49,-19.41,-20.19,0,*77
1532149272.78,57220,18.81,73986.0,8.47,-19.51,-20.53,0,*7C
1532149274.04,57221,18.81,73984.5,8.51,-20.43,-21.23,0,*75
1532149275.3,57222,18.81,73984.3,8.53,-20.49,-21.27,0,*7A
1532149276.54,57223,18.81,73976.3,8.53,-19.57,-20.43,0,*7D
1532149277.78,57224,18.81,73978.0,8.53,-19.57,-20.59,0,*71
1532149278.99,57225,18.81,73980.3,8.53,-19.99,-20.93,0,*74
1532149280.23,57226,18.81,73980.5,8.55,-19.95,-20.89,0,*76
1532149281.48,57227,18.81,73986.0,8.55,-20.59,-21.53,0,*7B
1532149282.69,57228,18.81,73986.3,8.57,-20.43,-21.17,0,*7D
1532149283.92,57229,18.81,73982.8,8.57,-20.39,-21.23,0,*76
1532149285.15,57230,18.81,73984.0,8.59,-20.25,-21.13,0,*7E
1532149286.35,57231,18.81,73984.3,8.57,-19.95,-20.73,0,*77
1532149287.59,57232,18.81,73986.8,8.57,-19.61,-20.43,0,*7C
1532149288.82,57233,18.81,73982.0,8.59,-19.91,-20.73,0,*7F
1532149290.08,57234,18.81,73984.0,8.63,-19.61,-20.59,0,*76
1532149291.32,57235,18.81,73986.3,8.65,-19.51,-20.35,0,*78
1532149292.52,57236,18.81,73984.5,8.65,-19.07,-20.05,0,*7B
1532149293.78,57237,18.81,73984.3,8.67,-19.31,-20.09,0,*71
1532149294.99,57238,18.81,73984.0,8.69,-19.07,-19.99,0,*76
1532149296.22,57239,18.81,73986.0,8.69,-19.23,-20.09,0,*72
1532149297.45,57240,18.81,73984.8,8.69,-20.39,-21.33,0,*75
1532149298.7,57241,18.81,73984.3,8.71,-20.69,-21.53,0,*7E
1532149299.95,57242,18.81,73984.3,8.71,-20.69,-21.67,0,*7A
1532149301.17,57243,18.81,73990.5,8.71,-20.09,-20.89,0,*7C
1532149302.43,57244,18.81,73984.8,8.71,-19.41,-20.39,0,*76
1532149303.65,57245,18.81,73986.5,8.73,-19.85,-20.69,0,*78
1532149304.88,57246,18.81,73984.0,8.73,-19.57,-20.69,0,*74
1532149306.12,57247,18.81,73984.0,8.75,-20.29,-21.33,0,*7E
1532149307.37,57248,18.81,73986.5,8.75,-21.23,-22.27,0,*7C
1532149308.61,57249,18.81,73986.5,8.75,-20.63,-21.57,0,*7C
1532149309.81,57250,18.81,73980.5,8.73,-20.93,-21.93,0,*75
1532149311.0,57251,18.81,73982.3,8.73,-20.69,-21.73,0,*7F
1532149312.27,57252,18.81,73986.3,8.75,-20.49,-21.57,0,*7E
1532149313.52,57253,18.81,73986.5,8.77,-20.39,-21.33,0,*78
1532149314.75,57254,18.81,73986.8,8.75,-20.59,-21.43,0,*7C
1532149316.0,57255,18.81,73984.5,8.75,-21.17,-22.17,0,*74
1532149317.26,57256,18.81,73986.5,8.75,-21.17,-22.31,0,*73
1532149318.51,57257,18.81,73986.5,8.75,-20.63,-21.67,0,*70
1532149319.73,57258,18.81,73986.5,8.75,-21.09,-22.27,0,*75
1532149320.95,57259,18.81,73984.0,8.75,-20.93,-22.03,0,*70
1532149322.2,57260,18.81,73980.5,8.75,-20.73,-21.67,0,*75
1532149323.41,57261,18.81,73984.5,8.75,-20.73,-21.73,0,*71
1532149324.67,57262,18.81,73986.8,8.77,-21.87,-22.97,0,*73
1532149325.87,57263,18.81,73984.5,8.73,-21.43,-22.57,0,*72
1532149327.09,57264,18.81,73986.5,8.73,-21.73,-22.73,0,*70
1532149328.31,57265,18.81,73986.0,8.73,-21.27,-22.37,0,*70
1532149329.58,57266,18.81,73984.8,8.71,-21.03,-21.97,0,*7E
1532149330.8,57267,18.81,73986.3,8.73,-21.57,-22.57,0,*73
1532149332.04,57268,18.81,73984.5,8.73,-21.53,-22.63,0,*7F
1532149333.26,57269,18.81,73986.8,8.71,-21.13,-21.93,0,*74
1532149334.51,57270,18.81,73982.0,8.71,-20.25,-21.27,0,*77
1532149335.73,57271,18.81,73984.5,8.73,-20.53,-21.47,0,*73
1532149336.93,57272,18.81,73988.0,8.73,-20.63,-21.47,0,*73
1532149338.13,57273,18.81,73988.0,8.73,-20.63,-21.43,0,*76
1532149339.33,57274,18.81,73988.0,8.73,-20.93,-21.93,0,*73
1532149340.58,57275,18.81,73986.5,8.73,-22.17,-23.29,0,*7F
1532149341.8,57276,18.81,73984.8,8.73,-21.57,-22.67,0,*70
1532149343.0,57277,18.81,73984.0,8.73,-21.47,-22.57,0,*73
1532149344.22,57278,18.81,73988.3,8.73,-21.73,-22.73,0,*7D
1532149345.47,57279,18.88,73988.5,8.71,-21.53,-22.63,0,*7D
1532149346.67,57280,18.81,73986.0,8.73,-21.43,-22.53,0,*7B
1532149347.92,57281,18.81,73986.0,8.73,-21.23,-22.31,0,*78
1532149349.17,57282,18.81,73984.5,8.71,-20.73,-21.83,0,*77
1532149350.42,57283,18.81,73986.3,8.71,-20.89,-21.97,0,*76
1532149351.64,57284,18.81,73990.0,8.71,-21.43,-22.53,0,*7D
1532149352.86,57285,18.81,73988.0,8.71,-21.17,-22.37,0,*7F
1532149354.08,57286,18.81,73988.8,8.71,-20.73,-21.93,0,*72
1532149355.31,57287,18.81,73986.5,8.71,-21.13,-22.27,0,*78
1532149356.51,57288,18.81,73986.3,8.73,-20.63,-21.47,0,*76
1532149357.73,57289,18.81,73988.8,8.73,-20.99,-21.93,0,*7B
1532149358.98,57290,18.81,73988.8,8.71,-21.27,-22.27,0,*79
1532149360.26,57291,18.81,73984.8,8.71,-21.03,-22.21,0,*78
1532149361.47,57292,18.81,73986.8,8.73,-21.63,-22.73,0,*78
1532149362.69,57293,18.81,73988.5,8.71,-21.43,-22.57,0,*7F
1532149363.91,57294,18.81,73986.8,8.71,-21.43,-22.41,0,*7F
1532149365.16,57295,18.81,73984.5,8.71,-21.17,-22.21,0,*79
1532149366.39,57296,18.81,73984.3,8.73,-21.87,-22.97,0,*7C
1532149367.63,57297,18.88,73988.0,8.73,-22.21,-23.29,0,*76
1532149368.88,57298,18.81,73984.3,8.71,-21.97,-23.09,0,*77
1532149370.13,57299,18.81,73988.0,8.71,-21.67,-22.87,0,*7E
1532149371.41,57300,18.81,73982.3,8.71,-21.67,-22.77,0,*70
1532149372.67,57301,18.81,73986.8,8.67,-21.53,-22.63,0,*74
1532149373.88,57302,18.88,73986.3,8.69,-21.47,-22.63,0,*7C
1532149375.11,57303,18.81,73984.0,8.69,-21.67,-22.67,0,*7B
1532149376.34,57304,18.81,73982.0,8.69,-21.67,-22.83,0,*76
1532149377.57,57305,18.88,73986.3,8.69,-21.67,-22.83,0,*77
1532149378.82,57306,18.81,73980.5,8.67,-22.27,-23.29,0,*7C
1532149380.07,57307,18.81,73982.8,8.67,-21.97,-22.83,0,*74
1532149381.35,57308,18.81,73980.8,8.67,-21.67,-22.77,0,*7F
1532149382.61,57309,18.81,73982.5,8.67,-22.27,-23.23,0,*79
1532149383.83,57310,18.81,73980.8,8.65,-22.03,-23.03,0,*77
1532149385.04,57311,18.88,73986.3,8.65,-21.93,-22.97,0,*70
1532149386.29,57312,18.81,73982.5,8.63,-21.73,-22.73,0,*71
1532149387.52,57313,18.88,73984.8,8.65,-21.57,-22.67,0,*75
1532149388.77,57314,18.81,73982.3,8.67,-22.27,-23.29,0,*7F
1532149390.02,57315,18.88,73986.0,8.65,-22.21,-23.33,0,*71
1532149391.3,57316,18.88,73986.8,8.63,-22.17,-23.29,0,*7A
1532149392.52,57317,18.88,73980.3,8.63,-22.07,-23.13,0,*73
1532149393.78,57318,18.81,73978.5,8.65,-21.27,-22.47,0,*7B
1532149395.01,57319,18.81,73976.8,8.65,-20.83,-21.93,0,*7F
1532149396.22,57320,18.88,73980.8,8.65,-21.77,-22.87,0,*79
1532149397.42,57321,18.88,73984.0,8.65,-22.03,-23.13,0,*74
1532149398.66,57322,18.81,73984.8,8.63,-22.07,-23.03,0,*74
1532149399.87,57323,18.88,73986.0,8.65,-21.93,-22.97,0,*71
1532149401.13,57324,18.81,73982.3,8.63,-21.87,-22.87,0,*74
1532149402.38,57325,18.81,73980.0,8.63,-22.07,-23.03,0,*73
1532149403.65,57326,18.81,73980.0,8.63,-22.47,-23.65,0,*74
1532149404.9,57327,18.81,73984.5,8.63,-22.97,-23.99,0,*7B
1532149406.18,57328,18.88,73984.8,8.63,-22.31,-23.49,0,*75
1532149407.43,57329,18.81,73984.3,8.59,-23.23,-24.35,0,*73
1532149408.63,57330,18.88,73984.8,8.57,-22.93,-24.05,0,*7C
1532149409.85,57331,18.88,73986.5,8.55,-22.41,-23.59,0,*7E
1532149411.09,57332,18.81,73980.0,8.55,-22.41,-23.69,0,*7E
1532149412.32,57333,18.81,73982.5,8.55,-22.57,-23.75,0,*75
1532149413.54,57334,18.88,73982.5,8.53,-22.63,-23.69,0,*7E
1532149414.79,57335,18.88,73978.0,8.55,-21.97,-22.97,0,*71
1532149416.03,57336,18.88,73982.0,8.53,-22.17,-23.13,0,*72
1532149417.23,57337,18.81,73980.3,8.53,-21.93,-22.87,0,*70
1532149418.49,57338,18.88,73982.0,8.53,-21.27,-22.21,0,*7C
1532149419.74,57339,18.88,73986.0,8.55,-20.25,-21.23,0,*79
1532149420.97,57340,18.88,73986.5,8.57,-20.43,-21.33,0,*74
1532149422.2,57341,18.88,73986.3,8.57,-21.87,-22.83,0,*74
1532149423.42,57342,18.88,73990.0,8.59,-22.27,-23.39,0,*70
1532149424.7,57343,18.88,73984.0,8.59,-22.77,-23.69,0,*71
1532149425.92,57344,18.88,73984.0,8.57,-22.41,-23.29,0,*79
1532149427.15,57345,18.88,73980.3,8.57,-22.77,-23.75,0,*74
1532149428.4,57346,18.88,73978.3,8.55,-22.27,-23.23,0,*73
1532149429.66,57347,18.88,73980.0,8.55,-21.87,-22.83,0,*70
1532149430.94,57348,18.88,73978.5,8.55,-21.67,-22.77,0,*7A
1532149432.19,57349,18.88,73980.8,8.55,-21.97,-22.97,0,*7A
1532149433.42,57350,18.88,73980.5,8.53,-21.93,-23.03,0,*7C
1532149434.65,57351,18.88,73980.5,8.53,-22.03,-23.03,0,*77
1532149435.87,57352,18.88,73980.0,8.55,-22.03,-23.09,0,*78
1532149437.15,57353,18.88,73980.5,8.55,-22.17,-23.29,0,*7E
1532149438.37,57354,18.88,73980.8,8.53,-22.07,-23.19,0,*7D
1532149439.59,57355,18.88,73980.3,8.53,-20.79,-21.73,0,*79
1532149440.87,57356,18.88,73980.8,8.55,-21.23,-22.17,0,*73
1532149442.12,57357,18.81,73980.0,8.55,-21.03,-22.03,0,*75
1532149443.35,57358,18.81,73982.0,8.57,-20.69,-21.53,0,*73
1532149444.6,57359,18.81,73982.5,8.57,-20.79,-21.67,0,*74
1532149445.83,57360,18.88,73984.5,8.57,-20.89,-21.97,0,*7E
1532149447.08,57361,18.88,73986.0,8.59,-20.49,-21.47,0,*70
1532149448.31,57362,18.88,73988.0,8.63,-19.91,-20.93,0,*7D
1532149449.54,57363,18.81,73982.0,8.65,-19.99,-20.79,0,*76
1532149450.77,57364,18.81,73980.5,8.65,-20.43,-21.27,0,*76
1532149452.0,57365,18.88,73982.0,8.67,-20.43,-21.39,0,*7A
1532149453.21,57366,18.88,73982.0,8.69,-20.39,-21.39,0,*7A
1532149454.41,57367,18.88,73984.0,8.69,-20.39,-21.09,0,*78
1532149455.64,57368,18.81,73982.0,8.69,-20.25,-21.03,0,*70
1532149456.9,57369,18.88,73984.3,8.69,-19.65,-20.53,0,*7B
1532149458.14,57370,18.81,73982.5,8.75,-19.81,-20.63,0,*77
1532149459.39,57371,18.88,73984.0,8.75,-19.95,-20.79,0,*78
1532149460.61,57372,18.88,73984.3,8.75,-20.39,-21.43,0,*7F
1532149461.89,57373,18.81,73980.0,8.75,-21.33,-22.31,0,*73
1532149463.15,57374,18.88,73980.8,8.77,-21.03,-22.03,0,*74
1532149464.39,57375,18.88,73982.5,8.77,-21.33,-22.41,0,*70
1532149465.65,57376,18.81,73978.3,8.75,-21.87,-22.93,0,*71
1532149466.87,57377,18.88,73978.8,8.75,-22.11,-23.13,0,*75
1532149468.12,57378,18.88,73980.3,8.75,-23.09,-24.25,0,*70
1532149469.35,57379,18.88,73976.8,8.71,-22.57,-23.59,0,*73
1532149470.6,57380,18.88,73974.3,8.71,-22.27,-23.33,0,*7E
1532149471.82,57381,18.81,73970.0,8.71,-23.09,-24.31,0,*77
1532149473.06,57382,18.88,73974.3,8.69,-23.59,-24.71,0,*7C
1532149474.33,57383,18.88,73978.5,8.67,-23.23,-24.11,0,*78
1532149475.54,57384,18.88,73978.5,8.65,-22.87,-23.95,0,*79
1532149476.77,57385,18.88,73978.8,8.65,-22.67,-23.69,0,*75
1532149478.02,57386,18.88,73976.3,8.63,-22.07,-23.03,0,*7A
1532149479.24,57387,18.88,73978.0,8.63,-22.07,-23.13,0,*7A
1532149480.48,57388,18.88,73982.8,8.65,-22.73,-23.69,0,*7D
1532149481.74,57389,18.88,73980.5,8.59,-22.11,-23.23,0,*79
1532149483.01,57390,18.88,73980.5,8.59,-22.21,-23.33,0,*73
1532149484.26,57391,18.88,73978.5,8.59,-22.87,-23.85,0,*73
1532149485.49,57392,18.88,73982.5,8.57,-22.17,-23.13,0,*78
1532149486.77,57393,18.88,73980.0,8.59,-22.21,-23.03,0,*73
1532149487.97,57394,18.88,73980.0,8.57,-22.63,-23.75,0,*7D
1532149489.17,57395,18.88,73978.5,8.57,-22.63,-23.75,0,*7C
1532149490.39,57396,18.88,73976.8,8.57,-22.63,-23.69,0,*72
1532149491.59,57397,18.88,73982.0,8.57,-22.03,-22.97,0,*75
1532149492.79,57398,18.81,73976.8,8.57,-22.27,-23.13,0,*71
1532149494.02,57399,18.88,73978.8,8.59,-21.47,-22.53,0,*7E
1532149495.25,57400,18.88,73976.3,8.57,-21.83,-22.93,0,*73
1532149496.47,57401,18.88,73980.8,8.57,-22.47,-23.59,0,*7E
1532149497.7,57402,18.88,73976.0,8.57,-22.47,-23.39,0,*7B
1532149498.94,57403,18.88,73982.8,8.57,-22.73,-23.69,0,*78
1532149500.19,57404,18.88,73982.3,8.55,-22.97,-23.95,0,*74
1532149501.46,57405,18.88,73978.8,8.55,-21.67,-22.73,0,*70
1532149502.72,57406,18.88,73980.8,8.55,-21.87,-22.83,0,*72
1532149503.97,57407,18.88,73980.5,8.55,-21.53,-22.41,0,*74
1532149505.21,57408,18.88,73980.3,8.55,-21.73,-22.73,0,*78
1532149506.42,57409,18.88,73976.3,8.53,-21.93,-22.83,0,*7E
1532149507.67,57410,18.88,73982.8,8.55,-21.97,-22.97,0,*71
1532149508.89,57411,18.88,73984.8,8.55,-21.39,-22.27,0,*7F
1532149510.15,57412,18.88,73986.0,8.59,-20.89,-21.67,0,*7D
1532149511.37,57413,18.88,73986.3,8.57,-20.93,-21.97,0,*76
1532149512.65,57414,18.88,73986.0,8.59,-21.03,-21.97,0,*77
1532149513.87,57415,18.88,73984.5,8.63,-21.63,-22.37,0,*70
1532149515.1,57416,18.88,73986.3,8.63,-22.83,-23.79,0,*75
1532149516.35,57417,18.88,73982.0,8.59,-22.67,-23.49,0,*74
1532149517.6,57418,18.88,73980.0,8.59,-22.57,-23.53,0,*73
1532149518.79,57419,18.88,73978.0,8.57,-22.63,-23.59,0,*71
1532149520.04,57420,18.88,73978.5,8.55,-22.73,-23.75,0,*76
1532149521.29,57421,18.88,73976.8,8.53,-23.19,-24.15,0,*7D
1532149522.54,57422,18.88,73982.5,8.55,-23.09,-23.95,0,*76
1532149523.79,57423,18.88,73978.8,8.53,-23.03,-23.99,0,*77
1532149525.03,57424,18.88,73980.3,8.55,-22.63,-23.69,0,*7E
1532149526.25,57425,18.88,73980.3,8.55,-22.41,-23.39,0,*7A
1532149527.5,57426,18.88,73982.3,8.51,-22.67,-23.49,0,*7E
1532149528.75,57427,18.88,73982.0,8.51,-22.47,-23.43,0,*77
1532149529.97,57428,18.88,73982.8,8.53,-22.87,-23.95,0,*7D
1532149531.21,57429,18.88,73978.5,8.53,-22.97,-23.85,0,*7C
1532149532.44,57430,18.88,73978.5,8.49,-22.53,-23.49,0,*77
1532149533.64,57431,18.88,73978.5,8.49,-22.53,-23.39,0,*71
1532149534.87,57432,18.88,73980.3,8.49,-22.41,-23.23,0,*7A
1532149536.09,57433,18.88,73984.0,8.51,-21.73,-22.67,0,*71
1532149537.38,57434,18.88,73982.8,8.51,-21.67,-22.47,0,*71
1532149538.63,57435,18.88,73980.8,8.51,-21.27,-22.07,0,*70
1532149539.91,57436,18.88,73986.3,8.51,-21.27,-22.17,0,*72
1532149541.13,57437,18.88,73986.3,8.51,-21.13,-22.07,0,*75
1532149542.41,57438,18.88,73986.8,8.55,-21.03,-21.87,0,*74
1532149543.63,57439,18.88,73984.5,8.55,-21.39,-22.11,0,*70
1532149544.88,57440,18.88,73984.3,8.55,-21.73,-22.73,0,*74
1532149546.1,57441,18.88,73984.3,8.57,-22.63,-23.53,0,*76
1532149547.32,57442,18.88,73980.8,8.55,-22.57,-23.39,0,*7C
1532149548.53,57443,18.88,73982.0,8.53,-22.27,-23.13,0,*74
1532149549.78,57444,18.88,73982.0,8.55,-21.67,-22.57,0,*73
1532149551.05,57445,18.88,73980.5,8.55,-21.83,-22.73,0,*7E
1532149552.27,57446,18.88,73980.3,8.55,-21.47,-22.41,0,*74
1532149553.52,57447,18.88,73982.0,8.55,-21.33,-22.03,0,*70
1532149554.77,57448,18.88,73980.5,8.55,-21.63,-22.47,0,*7A
1532149556.03,57449,18.88,73980.5,8.59,-20.53,-21.17,0,*73
1532149557.26,57450,18.88,73982.8,8.59,-20.39,-21.17,0,*77
1532149558.5,57451,18.88,73980.3,8.65,-20.59,-21.27,0,*7C
1532149559.7,57452,18.88,73984.5,8.65,-20.69,-21.43,0,*7E
1532149560.95,57453,18.88,73984.0,8.65,-20.79,-21.53,0,*7F
1532149562.15,57454,18.88,73982.0,8.65,-20.69,-21.43,0,*78
1532149563.41,57455,18.88,73980.5,8.67,-20.43,-21.23,0,*75
1532149564.64,57456,18.88,73984.0,8.67,-20.29,-20.89,0,*7B
1532149565.87,57457,18.88,73984.0,8.69,-20.15,-20.73,0,*7E
1532149567.07,57458,18.88,73986.3,8.69,-20.39,-20.93,0,*71
1532149568.31,57459,18.88,73984.0,8.71,-19.95,-20.59,0,*73
1532149569.55,57460,18.88,73986.3,8.73,-20.15,-20.79,0,*7B
1532149570.74,57461,18.88,73984.8,8.73,-20.29,-20.93,0,*71
1532149571.97,57462,18.88,73986.0,8.77,-20.09,-20.63,0,*7B
1532149573.2,57463,18.88,73984.5,8.75,-19.99,-20.73,0,*7A
1532149574.44,57464,18.88,73984.8,8.77,-20.29,-21.03,0,*78
1532149575.69,57465,18.88,73986.0,8.79,-20.19,-20.99,0,*76
1532149576.92,57466,18.88,73984.8,8.81,-19.95,-20.69,0,*73
1532149578.11,57467,18.88,73984.0,8.87,-20.29,-20.93,0,*7C
1532149579.37,57468,18.88,73986.3,8.81,-20.43,-21.27,0,*77
1532149580.65,57469,18.88,73984.5,8.85,-20.53,-21.27,0,*73
1532149581.85,57470,18.88,73986.5,8.87,-21.73,-22.53,0,*7A
1532149583.07,57471,18.88,73986.8,8.87,-21.43,-22.17,0,*78
1532149584.32,57472,18.88,73984.8,8.85,-21.09,-21.87,0,*7D
1532149585.55,57473,18.88,73984.5,8.85,-21.13,-22.03,0,*78
1532149586.8,57474,18.88,73986.8,8.85,-20.99,-21.77,0,*7C
1532149588.04,57475,18.88,73986.0,8.85,-21.43,-22.21,0,*7B
1532149589.3,57476,18.88,73986.8,8.85,-20.99,-21.77,0,*7E
1532149590.52,57477,18.88,73980.5,8.85,-21.09,-21.93,0,*7D
1532149591.74,57478,18.88,73986.8,8.87,-21.33,-22.27,0,*75
1532149592.94,57479,18.88,73984.0,8.87,-21.17,-22.03,0,*74
1532149594.16,57480,18.88,73986.8,8.87,-21.83,-22.67,0,*7D
1532149595.41,57481,18.88,73986.3,8.85,-21.87,-22.67,0,*7A
1532149596.66,57482,18.88,73982.8,8.85,-20.83,-21.73,0,*7A
1532149597.87,57483,18.88,73982.0,8.87,-20.35,-21.09,0,*79
1532149599.14,57484,18.88,73984.5,8.85,-20.53,-21.33,0,*75
1532149600.36,57485,18.88,73982.3,8.87,-20.89,-21.83,0,*7A
1532149601.58,57486,18.88,73984.0,8.87,-21.09,-21.97,0,*75
1532149602.8,57487,18.88,73986.0,8.85,-21.63,-22.53,0,*71
1532149604.05,57488,18.88,73984.5,8.85,-22.53,-23.53,0,*7F
1532149605.28,57489,18.88,73982.8,8.81,-23.59,-24.51,0,*74
1532149606.53,57490,18.88,73982.8,8.79,-23.69,-24.71,0,*7A
1532149607.73,57491,18.88,73982.5,8.79,-23.43,-24.35,0,*73
1532149608.96,57492,18.88,73982.3,8.79,-23.59,-24.67,0,*7C
1532149610.21,57493,18.88,73978.8,8.75,-23.65,-24.61,0,*78
1532149611.48,57494,18.88,73980.3,8.71,-23.85,-24.83,0,*79
1532149612.68,57495,18.88,73980.0,8.69,-23.13,-24.05,0,*70
1532149613.9,57496,18.88,73980.0,8.69,-23.13,-24.11,0,*76
1532149615.15,57497,18.88,73978.3,8.67,-22.97,-23.95,0,*7F
1532149616.38,57498,18.88,73978.8,8.67,-22.93,-23.79,0,*76
1532149617.63,57499,18.88,73980.3,8.65,-22.31,-23.29,0,*78
1532149618.88,57500,18.88,73982.0,8.65,-22.73,-23.65,0,*77
1532149620.1,57501,18.88,73978.8,8.63,-22.07,-22.97,0,*7F
1532149621.36,57502,18.88,73982.3,8.65,-21.27,-22.17,0,*73
1532149622.59,57503,18.88,73982.8,8.65,-20.93,-21.87,0,*76
1532149623.85,57504,18.88,73980.5,8.65,-21.27,-22.17,0,*75
1532149625.11,57505,18.88,73982.8,8.65,-21.33,-22.17,0,*71
1532149626.36,57506,18.88,73982.0,8.67,-21.57,-22.57,0,*76
1532149627.61,57507,18.88,73984.3,8.67,-21.09,-21.83,0,*76
1532149628.89,57508,18.88,73980.0,8.67,-21.23,-22.17,0,*7F
1532149630.14,57509,18.88,73984.3,8.67,-21.09,-21.83,0,*78
1532149631.4,57510,18.88,73986.3,8.69,-21.03,-21.83,0,*74
1532149632.62,57511,18.88,73984.3,8.69,-21.09,-21.97,0,*7A
1532149633.88,57512,18.88,73982.0,8.69,-21.03,-21.87,0,*72
1532149635.15,57513,18.88,73986.8,8.71,-20.83,-21.53,0,*7A
1532149636.37,57514,18.88,73986.3,8.71,-21.13,-22.07,0,*77
1532149637.6,57515,18.88,73984.5,8.73,-20.49,-21.39,0,*74
1532149638.8,57516,18.88,73986.8,8.73,-20.43,-21.13,0,*75
1532149640.0,57517,18.88,73986.8,8.73,-20.63,-21.39,0,*7E
1532149641.25,57518,18.88,73982.8,8.77,-21.23,-22.03,0,*7A
1532149642.49,57519,18.88,73980.5,8.75,-21.57,-22.41,0,*7C
1532149643.71,57520,18.88,73984.8,8.75,-21.09,-22.11,0,*78
1532149644.98,57521,18.88,73986.3,8.75,-20.79,-21.57,0,*7E
1532149646.24,57522,18.88,73986.8,8.77,-20.59,-21.33,0,*7F
1532149647.47,57523,18.88,73984.3,8.77,-20.25,-20.93,0,*7E
1532149648.71,57524,18.88,73990.8,8.77,-20.25,-20.79,0,*7D
1532149649.92,57525,18.88,73990.5,8.79,-19.75,-20.59,0,*7F
1532149651.19,57526,18.88,73988.3,8.81,-20.35,-21.03,0,*7B
1532149652.41,57527,18.88,73988.8,8.81,-20.73,-21.63,0,*7E
1532149653.63,57528,18.88,73984.5,8.81,-20.73,-21.63,0,*71
1532149654.86,57529,18.88,73986.5,8.79,-21.17,-21.97,0,*7F
1532149656.12,57530,18.88,73986.3,8.81,-20.43,-21.27,0,*7B
1532149657.37,57531,18.88,73986.0,8.81,-20.89,-21.67,0,*78
1532149658.6,57532,18.88,73982.5,8.85,-20.63,-21.47,0,*79
1532149659.85,57533,18.88,73986.3,8.85,-20.99,-21.77,0,*7E
1532149661.13,57534,18.88,73986.0,8.85,-21.27,-22.21,0,*7D
1532149662.35,57535,18.88,73982.5,8.87,-21.23,-22.03,0,*7A
1532149663.63,57536,18.88,73984.0,8.85,-20.49,-21.27,0,*73
1532149664.85,57537,18.88,73980.8,8.87,-20.35,-21.17,0,*78
1532149666.04,57538,18.88,73986.3,8.87,-20.09,-20.93,0,*75
1532149667.24,57539,18.88,73984.3,8.87,-20.09,-20.89,0,*7F
1532149668.49,57540,18.88,73986.0,8.89,-20.15,-20.89,0,*72
1532149669.69,57541,18.88,73986.3,8.91,-19.91,-20.69,0,*72
1532149670.88,57542,18.88,73984.8,8.95,-20.73,-21.63,0,*78
1532149672.1,57543,18.88,73986.3,8.91,-20.53,-21.47,0,*79
1532149673.33,57544,18.88,73988.0,8.91,-20.83,-21.77,0,*70
1532149674.55,57545,18.88,73986.3,8.91,-20.89,-21.83,0,*70
1532149675.8,57546,18.88,73990.3,8.91,-20.99,-21.97,0,*77
1532149677.02,57547,18.88,73988.8,8.91,-20.69,-21.53,0,*71
1532149678.25,57548,18.88,73990.3,8.93,-20.43,-21.39,0,*78
1532149679.48,57549,18.88,73990.5,8.93,-20.39,-21.17,0,*78
1532149680.72,57550,18.88,73986.8,8.95,-20.19,-20.99,0,*73
1532149681.99,57551,18.88,73986.3,8.93,-20.83,-21.53,0,*70
1532149683.19,57552,18.88,73986.3,8.95,-20.63,-21.43,0,*7A
1532149684.41,57553,18.88,73982.8,8.95,-19.75,-20.53,0,*76
1532149685.66,57554,18.88,73986.5,8.99,-19.65,-20.49,0,*77
1532149686.93,57555,18.88,73986.5,8.97,-20.15,-21.03,0,*7A
1532149688.13,57556,18.88,73984.3,8.99,-20.43,-21.39,0,*7D
1532149689.38,57557,18.88,73986.8,9.01,-20.09,-20.99,0,*79
1532149690.6,57558,18.88,73982.8,9.03,-20.59,-21.53,0,*76
1532149691.85,57559,18.88,73984.5,9.01,-21.33,-22.27,0,*78
1532149693.1,57560,18.88,73984.5,9.01,-21.09,-21.83,0,*76
1532149694.32,57561,18.88,73986.0,9.01,-21.47,-22.41,0,*70
1532149695.54,57562,18.88,73980.8,8.99,-22.17,-23.13,0,*73
1532149696.77,57563,18.88,73982.3,8.99,-21.87,-22.83,0,*70
1532149697.99,57564,18.88,73984.8,8.99,-21.13,-22.17,0,*77
1532149699.21,57565,18.88,73984.5,8.97,-21.73,-22.67,0,*79
1532149700.48,57566,18.88,73984.3,8.97,-22.31,-23.29,0,*74
1532149701.7,57567,18.88,73980.5,8.95,-21.57,-22.53,0,*78
1532149702.9,57568,18.88,73986.8,8.95,-21.77,-22.67,0,*72